AEROCUBE 6B

Last updated on Wed Sep 17 2025 00:03:49 GMT+0000 (Coordinated Universal Time)

1 40046U 14033AN 25259.44960360 .00008015 00000+0 73328-3 0 9999 2 40046 97.6996 64.8332 0040518 202.5467 157.3975 14.94614697605797
UTC large
Height (km)
Speed (km/s)
/
Latitude / Longitude
Inclination (degrees)
Orbital Period (minutes)
Azimuth
Elevation
Range (km)
Doppler Factor

Next 0 passes for location: London (51.5072 / 0.1276)

Sorry there are no passes over London.